Time,TemperatureF,DewpointF,PressureIn,WindDirection,WindDirectionDegrees,WindSpeedMPH,WindSpeedGustMPH,Humidity,HourlyPrecipIn,Conditions,Clouds,dailyrainin,SoftwareType,DateUTC
2014-12-18 00:22:00,47.0,45.0,30.09,North,355,0.0,-999.0,93,-99.99,,,-99.99,,2014-12-18 06:22:00,
2014-12-18 00:42:00,47.0,45.0,30.07,North,355,0.0,-999.0,93,-99.99,,,-99.99,,2014-12-18 06:42:00,
2014-12-18 00:52:00,47.0,45.0,30.08,North,355,0.0,-999.0,93,-99.99,,,-99.99,,2014-12-18 06:52:00,
2014-12-18 01:12:00,47.0,45.0,30.07,North,355,0.0,-999.0,93,-99.99,,,-99.99,,2014-12-18 07:12:00,
2014-12-18 01:22:00,47.0,45.0,30.07,North,355,0.0,-999.0,93,-99.99,,,-99.99,,2014-12-18 07:22:00,
2014-12-18 01:52:00,47.0,45.0,30.06,NNE,22,0.0,-999.0,93,-99.99,,,-99.99,,2014-12-18 07:52:00,
2014-12-18 02:12:00,47.0,45.0,30.06,NNE,25,0.0,-999.0,93,-99.99,,,-99.99,,2014-12-18 08:12:00,
2014-12-18 02:22:00,47.0,45.0,30.06,NNE,28,0.0,-999.0,93,-99.99,,,-99.99,,2014-12-18 08:22:00,
2014-12-18 02:42:00,46.0,44.0,30.05,NNE,32,0.0,-999.0,93,-99.99,,,-99.99,,2014-12-18 08:42:00,
2014-12-18 02:52:00,47.0,45.0,30.05,NE,49,0.0,-999.0,93,-99.99,,,-99.99,,2014-12-18 08:52:00,
2014-12-18 03:11:00,47.0,45.0,30.05,NE,49,0.0,-999.0,93,-99.99,,,-99.99,,2014-12-18 09:11:00,
2014-12-18 03:22:00,46.0,44.0,30.04,NE,49,0.0,-999.0,93,-99.99,,,-99.99,,2014-12-18 09:22:00,
2014-12-18 03:44:00,47.0,45.0,30.05,NE,49,0.0,-999.0,93,-99.99,,,-99.99,,2014-12-18 09:44:00,
2014-12-18 03:54:00,47.0,45.0,30.05,NE,47,0.0,-999.0,93,-99.99,,,-99.99,,2014-12-18 09:54:00,
2014-12-18 04:12:00,47.0,45.0,30.04,NE,47,0.0,-999.0,93,-99.99,,,-99.99,,2014-12-18 10:12:00,
2014-12-18 04:23:00,46.0,44.0,30.04,NE,47,0.0,-999.0,93,-99.99,,,-99.99,,2014-12-18 10:23:00,
2014-12-18 04:43:00,47.0,45.0,30.03,NE,47,0.0,-999.0,93,-99.99,,,-99.99,,2014-12-18 10:43:00,
2014-12-18 04:53:00,47.0,45.0,30.03,NE,47,0.0,-999.0,93,-99.99,,,-99.99,,2014-12-18 10:53:00,
2014-12-18 05:12:00,47.0,45.0,30.03,NE,47,0.0,-999.0,93,-99.99,,,-99.99,,2014-12-18 11:12:00,
2014-12-18 05:22:00,47.0,45.0,30.04,NE,47,0.0,-999.0,93,-99.99,,,-99.99,,2014-12-18 11:22:00,
2014-12-18 05:42:00,47.0,45.0,30.04,NE,47,0.0,-999.0,93,-99.99,,,-99.99,,2014-12-18 11:42:00,
2014-12-18 05:52:00,47.0,45.0,30.04,NE,46,0.0,-999.0,93,-99.99,,,-99.99,,2014-12-18 11:52:00,
2014-12-18 06:22:00,47.0,45.0,30.05,NE,46,0.0,-999.0,93,-99.99,,,-99.99,,2014-12-18 12:22:00,
2014-12-18 06:42:00,47.0,45.0,30.05,NE,46,0.0,-999.0,93,-99.99,,,-99.99,,2014-12-18 12:42:00,
2014-12-18 06:52:00,47.0,45.0,30.06,NE,46,0.0,-999.0,93,-99.99,,,-99.99,,2014-12-18 12:52:00,
2014-12-18 07:22:00,47.0,45.0,30.07,NE,46,0.0,-999.0,93,-99.99,,,-99.99,,2014-12-18 13:22:00,
2014-12-18 07:42:00,47.0,45.0,30.08,NE,46,0.0,-999.0,94,-99.99,,,-99.99,,2014-12-18 13:42:00,
2014-12-18 07:52:00,47.0,45.0,30.07,NE,46,0.0,-999.0,94,-99.99,,,-99.99,,2014-12-18 13:52:00,
2014-12-18 08:12:00,48.0,46.0,30.07,NE,46,0.0,-999.0,94,-99.99,,,-99.99,,2014-12-18 14:12:00,
2014-12-18 08:22:00,48.0,46.0,30.07,NE,46,0.0,-999.0,94,-99.99,,,-99.99,,2014-12-18 14:22:00,
2014-12-18 08:42:00,48.0,46.0,30.07,NE,46,0.0,-999.0,94,-99.99,,,-99.99,,2014-12-18 14:42:00,
2014-12-18 08:53:00,48.0,46.0,30.08,NE,46,0.0,-999.0,94,-99.99,,,-99.99,,2014-12-18 14:53:00,
2014-12-18 09:11:00,48.0,46.0,30.08,NE,46,0.0,-999.0,94,-99.99,,,-99.99,,2014-12-18 15:11:00,
2014-12-18 09:22:00,49.0,47.0,30.09,NE,46,0.0,-999.0,94,-99.99,,,-99.99,,2014-12-18 15:22:00,
2014-12-18 09:44:00,49.0,47.0,30.09,ENE,71,0.0,-999.0,94,-99.99,,,-99.99,,2014-12-18 15:44:00,
2014-12-18 09:54:00,49.0,47.0,30.09,ENE,71,0.0,-999.0,94,-99.99,,,-99.99,,2014-12-18 15:54:00,
2014-12-18 10:23:00,51.0,49.0,30.09,ENE,73,0.0,-999.0,94,-99.99,,,-99.99,,2014-12-18 16:23:00,
2014-12-18 10:43:00,51.0,49.0,30.09,ENE,73,0.0,-999.0,94,-99.99,,,-99.99,,2014-12-18 16:43:00,
2014-12-18 10:53:00,52.0,50.0,30.09,ENE,73,0.0,-999.0,94,-99.99,,,-99.99,,2014-12-18 16:53:00,
2014-12-18 11:22:00,53.0,51.0,30.09,ENE,73,0.0,-999.0,94,-99.99,,,-99.99,,2014-12-18 17:22:00,
2014-12-18 11:43:00,54.0,52.0,30.08,ENE,73,0.0,-999.0,94,-99.99,,,-99.99,,2014-12-18 17:43:00,
2014-12-18 11:52:00,54.0,52.0,30.08,ENE,73,0.0,-999.0,94,-99.99,,,-99.99,,2014-12-18 17:52:00,
2014-12-18 12:22:00,55.0,53.0,30.06,WNW,302,0.0,-999.0,94,-99.99,,,-99.99,,2014-12-18 18:22:00,
2014-12-18 12:43:00,55.0,53.0,30.05,WNW,294,2.0,-999.0,94,-99.99,,,-99.99,,2014-12-18 18:43:00,
2014-12-18 12:53:00,55.0,53.0,30.05,WNW,294,2.0,-999.0,94,-99.99,,,-99.99,,2014-12-18 18:53:00,
2014-12-18 13:22:00,55.0,53.0,30.04,WNW,298,1.0,-999.0,94,-99.99,,,-99.99,,2014-12-18 19:22:00,
2014-12-18 13:42:00,55.0,53.0,30.03,WNW,298,0.0,-999.0,94,-99.99,,,-99.99,,2014-12-18 19:42:00,
2014-12-18 13:52:00,56.0,54.0,30.01,WNW,299,0.0,-999.0,94,-99.99,,,-99.99,,2014-12-18 19:52:00,
2014-12-18 14:12:00,56.0,54.0,30.01,WNW,299,0.0,-999.0,94,-99.99,,,-99.99,,2014-12-18 20:12:00,
2014-12-18 14:22:00,56.0,54.0,30.01,WNW,299,0.0,-999.0,94,-99.99,,,-99.99,,2014-12-18 20:22:00,
2014-12-18 14:42:00,56.0,54.0,30.01,WNW,302,0.0,-999.0,94,-99.99,,,-99.99,,2014-12-18 20:42:00,
2014-12-18 14:52:00,56.0,54.0,30.00,WNW,302,0.0,-999.0,94,-99.99,,,-99.99,,2014-12-18 20:52:00,
2014-12-18 15:12:00,56.0,54.0,30.00,NW,304,0.0,-999.0,94,-99.99,,,-99.99,,2014-12-18 21:12:00,
2014-12-18 15:22:00,56.0,54.0,30.01,NW,304,0.0,-999.0,94,-99.99,,,-99.99,,2014-12-18 21:22:00,
2014-12-18 15:43:00,56.0,54.0,30.00,NNE,31,2.0,-999.0,94,-99.99,,,-99.99,,2014-12-18 21:43:00,
2014-12-18 15:54:00,56.0,54.0,30.00,NE,38,1.0,-999.0,94,-99.99,,,-99.99,,2014-12-18 21:54:00,
2014-12-18 16:24:00,56.0,54.0,29.99,NE,36,1.0,-999.0,94,-99.99,,,-99.99,,2014-12-18 22:24:00,
2014-12-18 16:42:00,56.0,54.0,29.99,ENE,78,1.0,-999.0,94,-99.99,,,-99.99,,2014-12-18 22:42:00,
2014-12-18 16:53:00,56.0,54.0,29.99,East,80,0.0,-999.0,93,-99.99,,,-99.99,,2014-12-18 22:53:00,
2014-12-18 17:22:00,56.0,54.0,30.01,East,82,0.0,-999.0,92,-99.99,,,-99.99,,2014-12-18 23:22:00,